Regional Weather Roundup
Issued by NWS

Home | Current Version | Previous Version | Graphics & Text | Print | Product List | Glossary On
Versions: 1 2 3 4 5 6 7 8 9 10 11 12 13 14 15 16 17 18 19 20 21 22 23 24 25 26 27 28 29 30 31 32 33 34 35 36 37 38 39 40 41 42 43 44 45 46 47 48 49 50
000
ASUS43 KLMK 171910
RWRKY
KENTUCKY REGIONAL WEATHER ROUNDUP
NATIONAL WEATHER SERVICE LOUISVILLE KY
300 PM EDT THU AUG 17 2017

NOTE "FAIR" INDICATES FEW OR NO CLOUDS BELOW 12,000 FEET
WITH NO SIGNIFICANT WEATHER AND/OR OBSTRUCTIONS TO VISIBILITY.

KYZ001>023-026-027-061>063-070>075-172000-
WESTERN AND SOUTH CENTRAL KENTUCKY

CITY           SKY/WX    TMP DP  RH WIND       PRES   REMARKS
PADUCAH        CLOUDY    81  73  76 VRB6      29.91F
HENDERSON      MOSUNNY   86  73  65 W9        29.89F HX  93
OWENSBORO      CLOUDY    91  75  59 SW14G23   29.88F HX 101
HOPKINSVILLE   MOSUNNY   86  75  69 SW17      29.94F HX  95
BOWLING GREEN  CLOUDY    87  74  64 SW15      29.95F HX  95
GLASGOW        PTSUNNY   87  71  57 SW10G18   29.96F HX  93
$$

KYZ024-025-028>034-038-045-046-053-172000-
NORTH CENTRAL KENTUCKY

CITY           SKY/WX    TMP DP  RH WIND       PRES   REMARKS
LOUISVILLE/SDF CLOUDY    95  72  47 SW16G26   29.86F HX 103
LOUISVILLE/LOU PTSUNNY   92  73  53 SW18G29   29.86F HX 100
FORT KNOX      MOSUNNY   89  73  59 SW16G24   29.89F HX  97
$$

KYZ035>037-039>044-047>052-055>060-089>105-172000-
NORTHEAST KENTUCKY

CITY           SKY/WX    TMP DP  RH WIND       PRES   REMARKS
LEXINGTON      MOSUNNY   89  69  51 SW17G25   29.93F HX  93
COVINGTON      TSTM      79  75  87 W20G32    29.89R
FRANKFORT      MOSUNNY   90  71  53 SW14      29.90F HX  96
$$

KYZ054-064>069-076>088-106>120-172000-
SOUTHEAST KENTUCKY

CITY           SKY/WX    TMP DP  RH WIND       PRES   REMARKS
JACKSON        MOSUNNY   86  73  65 VRB3      29.98F HX  93
LONDON         MOSUNNY   88  70  55 SW14      29.99F HX  93
SOMERSET       PTSUNNY   86  68  54 SW13G20   29.99F
MIDDLESBORO    MOSUNNY   86  73  65 W3        30.01F HX  93
MONTICELLO     PTCLDY    88  73  61 W18G25    30.00F HX  95
$$





USA.gov is the U.S. government's official web portal to all federal, state and local government web resources and services.